Regional Weather Roundup
Issued by NWS

Home | Current Version | Previous Version | Graphics & Text | Print | Product List | Glossary On
Versions: 1 2 3 4 5 6 7 8 9 10 11 12 13 14 15 16 17 18 19 20 21 22 23 24 25 26 27 28 29 30 31 32 33 34 35 36 37 38 39 40 41 42 43 44 45 46 47 48 49 50
000
ASUS43 KOAX 220410
RWRNE

WEATHER ROUNDUP FOR NEBRASKA
NATIONAL WEATHER SERVICE OMAHA NE
1100 PM CDT SUN MAY 21 2017

NOTES: SATELLITE DATA IS BEING USED TO AUGMENT CLOUD COVER ABOVE
       12000 FEET.
       "FAIR" INDICATES FEW OR NO CLOUDS BELOW 12,000 FEET WITH NO
       SIGNIFICANT WEATHER AND/OR OBSTRUCTIONS TO VISIBILITY.

  * THESE STATIONS DO NOT REPORT WEATHER SUCH AS RAIN...SNOW OR FOG.

NEZ001>004-019>022-054>056-220500-
NEBRASKA PANHANDLE

CITY           SKY/WX    TMP DP  RH WIND       PRES   REMARKS
SCOTTSBLUFF    MOCLDY    51  32  48 N15       30.21R
ALLIANCE       CLEAR     38  37  97 W8        30.17R WCI  32
CHADRON        CLEAR     44  42  93 SW8       30.15S
GORDON         FAIR      46  42  86 W7        30.12S
KIMBALL        CLOUDY    47  41  81 NW3       30.23R
SIDNEY         CLOUDY    41  39  93 W6        30.21R
$$

NEZ057>060-069>072-079>082-220500-
SOUTHWEST NEBRASKA

CITY           SKY/WX    TMP DP  RH WIND       PRES   REMARKS
NORTH PLATTE   CLOUDY    48  44  86 NW7       30.12R
IMPERIAL       CLOUDY    54  47  77 NW6       30.15R
LEXINGTON      CLOUDY    55  48  76 W5        30.11R
MCCOOK         PTCLDY    55  46  71 W7        30.12R
OGALLALA       CLOUDY    52  47  84 W6        30.16R
$$

NEZ005>010-023>029-035>040-094-220500-
NORTH CENTRAL NEBRASKA

CITY           SKY/WX    TMP DP  RH WIND       PRES   REMARKS
VALENTINE      CLOUDY    56  42  59 W10       30.07R
AINSWORTH      CLOUDY    53  47  78 SW8       30.07S
BROKEN BOW     CLEAR     54  45  71 N12       30.09R
O`NEILL        CLOUDY    55  43  62 S5        30.03S
ORD            PTCLDY    50  43  77 SW8       30.05
THEDFORD       CLOUDY    52  49  88 NW8       30.12R
$$

NEZ041-046>049-061>064-073>077-083>087-220500-
SOUTH CENTRAL NEBRASKA

CITY           SKY/WX    TMP DP  RH WIND       PRES   REMARKS
GRAND ISLAND   CLEAR     55  44  66 S7        30.09R
AURORA         CLEAR     57  43  57 S7        30.09R
HASTINGS       CLEAR     58  43  57 SE8       30.10R
HEBRON         CLEAR     56  46  70 S7        30.11R
HOLDREGE       PTCLDY    56  44  61 CALM      30.10R
KEARNEY *      CLEAR     54  45  71 NE3       30.09S
YORK           CLEAR     55  45  67 S7        30.09S
$$

NEZ011>018-030>034-042>045-220500-
NORTHEAST NEBRASKA

CITY           SKY/WX    TMP DP  RH WIND       PRES   REMARKS
NORFOLK        PTCLDY    52  41  66 S8        30.05R
ALBION         PTCLDY    50  42  73 CALM      30.06S
BLAIR          CLEAR     53  45  74 SE5       30.08S
FREMONT        CLEAR     54  46  74 SE5       30.08S
TEKAMAH        CLEAR     51  48  89 S8        30.07R
WAYNE          CLEAR     50  45  80 S5        30.04S
$$

NEZ050>053-065>068-078-088>093-220500-
SOUTHEAST NEBRASKA

CITY           SKY/WX    TMP DP  RH WIND       PRES   REMARKS
LINCOLN        CLEAR     57  45  64 S3        30.10S
OMAHA EPPLEY   CLEAR     55  45  68 S6        30.09R
BEATRICE       CLEAR     58  47  66 CALM      30.10S
FALLS CITY     CLEAR     57  44  62 S6        30.11R
NEBRASKA CITY  CLEAR     58  37  46 SE5       30.11R
PLATTSMOUTH    CLEAR     55  42  63 SE5       30.10R
$$

NEZ044-045-051>053-067-220500-
OMAHA AREA

CITY           SKY/WX    TMP DP  RH WIND       PRES   REMARKS
OMAHA EPPLEY   CLEAR     55  45  68 S6        30.09R
BLAIR          CLEAR     53  45  74 SE5       30.08S
FREMONT        CLEAR     54  46  74 SE5       30.08S
MILLARD        CLEAR     53  48  83 CALM      30.10R
OFFUTT AFB     CLEAR     55  45  67 S6        30.11R
PLATTSMOUTH    CLEAR     55  42  63 SE5       30.10R
WAHOO          FAIR      51  45  78 S7        30.09S
$$




USA.gov is the U.S. government's official web portal to all federal, state and local government web resources and services.